Location: San Gennaro Vesuviano
(40.8833°N, 14.5333°E)
Time: 09:46:10
(UTC+00:00)

Cosmos 2263 Rocket - Pass Details

Date: 22 April 2021
Orbit: 824 x 848 km, 71.0° (Epoch: 11 May)

Event Time Altitude Azimuth Distance (km) Brightness Sun altitude
Exits shadow 22:16:20 30° 309° (NW) 1,452 3.7 -35.6°
Drops below altitude 10° 22:20:55 10° 4° (N) 2,434 5.3 -35.8°
Sets 22:23:40 0° 16° (NNE) 3,374 6.1 -35.9°
